#timestamp,LO_Frequency,Hit,StdDev 
1607504415.8,286047004.9,N
1607504435.7,286047006.9,N
1607504455.5,286047009.8,Y
1607504475.3,286047008.5,P
1607504495.2,286047004.9,N
1607504515.0,286047004.4,N
1607504515.9,286047004.4,N
1607504535.8,286047003.2,N
1607504555.6,286047003.6,N
1607504575.4,286047004.3,N
1607504595.3,286047001.7,N
1607504615.1,286047001.5,N
1607504616.0,286047001.5,N
1607504635.8,286047002.6,N
1607504655.7,286047000.6,N
1607504675.5,286047003.0,N
1607504695.4,286047006.0,Y
1607504715.2,286047001.4,P
1607504735.0,286047002.8,N
1607504735.9,286047002.8,P
1607504755.8,286046995.4,Y
1607504775.6,286046990.9,P
1607504795.4,286046988.1,N
1607504815.3,286046990.2,N
1607504835.1,286046990.8,N
1607504855.9,286046992.0,N
1607504875.7,286046995.6,N
1607504895.5,286046997.8,N
1607504915.4,286046998.2,N
1607504935.2,286047002.2,N
1607504955.0,286046999.5,N
1607504955.9,286046999.5,N
1607504975.8,286046995.3,N
1607504995.6,286046993.8,N
1607505015.5,286046992.1,N
1607505035.3,286046991.0,N
1607505055.1,286046987.0,N
1607505075.9,286046992.5,N
1607505095.7,286046988.0,N
1607505115.5,286046991.2,N
1607505135.4,286046988.0,N
1607505155.2,286046989.7,N
1607505175.1,286046984.4,Y
1607505176.0,286046984.4,P
1607505195.8,286046991.3,N
1607505215.6,286046993.3,N
1607505235.5,286046993.1,N
1607505255.3,286046993.7,N
1607505275.1,286046991.9,N
1607505295.9,286046987.1,Y
1607505315.7,286046999.4,P
1607505335.6,286047003.1,N
1607505355.4,286047003.5,N
1607505375.2,286047004.9,N
1607505395.1,286047012.3,N
1607505396.0,286047012.3,N
1607505415.8,286047012.8,N
1607505435.7,286047018.0,N
1607505455.5,286047018.8,N
1607505475.3,286047014.2,N
1607505495.2,286047015.8,N
1607505515.0,286047018.3,N
1607505515.9,286047018.3,N
1607505535.7,286047009.6,N
1607505555.6,286047013.9,N
1607505575.4,286047014.0,N
1607505595.3,286047011.8,N
1607505615.1,286047011.6,N
1607505616.0,286047011.6,N
1607505635.8,286047014.8,N
1607505655.7,286047013.5,N
1607505675.5,286047010.0,N
1607505695.3,286047005.1,N
1607505715.2,286047007.7,N
1607505735.0,286047003.8,N
1607505735.9,286047003.8,N
1607505755.8,286047004.1,N
1607505775.6,286046999.9,N
1607505795.4,286046998.5,N
1607505815.3,286047004.3,N
1607505835.1,286047002.7,N
1607505855.9,286046998.4,N
1607505875.7,286046998.2,N
1607505895.5,286047003.2,N
1607505915.4,286046998.9,N
1607505935.2,286046998.1,N
1607505955.0,286047003.9,N
1607505955.9,286047003.9,N
1607505975.8,286047003.7,N
1607505995.6,286047004.7,N
1607506015.5,286047007.8,N
1607506035.3,286047006.4,N
1607506055.1,286047003.1,N
1607506075.9,286047005.5,N
1607506095.7,286047002.7,N
1607506115.5,286046997.6,N
1607506135.4,286047005.8,N
1607506155.2,286047010.7,N
1607506175.1,286047014.3,Y
1607506176.0,286047014.3,P
1607506195.8,286047011.4,N
1607506215.6,286047013.4,P
1607506235.5,286047009.8,N
1607506255.3,286047007.2,N
1607506275.1,286047004.1,N
1607506295.9,286047005.4,N
1607506315.7,286047002.1,N
1607506365.6,286047004.2,E
1607506375.5,286047001.6,N
1607506395.4,286046995.7,P
1607506415.2,286046999.1,N
1607506435.0,286046997.0,N
1607506435.9,286046997.0,N
1607506455.8,286046997.1,N
1607506475.6,286047001.8,N
1607506495.4,286047001.4,N
1607506515.3,286047004.2,N
1607506535.1,286047002.2,N
1607506555.9,286047007.2,N
1607506575.7,286047004.8,N
1607506595.5,286047005.4,N
1607506615.4,286047001.8,N
1607506635.2,286047001.7,N
1607506655.1,286047000.7,N
1607506656.0,286047000.7,N
1607506675.8,286046998.7,N
1607506695.7,286047000.9,N
1607506715.5,286047004.3,N
1607506735.4,286047005.7,N
1607506755.2,286047001.5,N
1607506775.0,286047003.9,N
1607506775.9,286047003.9,N
1607506795.8,286047001.5,N
1607506815.6,286046998.7,N
1607506835.5,286046990.9,Y
1607506855.3,286046980.6,P
1607506875.2,286046982.8,N
1607506895.9,286046991.2,N
1607506915.8,286046987.5,N
1607506935.6,286046990.8,N
1607506955.4,286046983.9,N
1607506975.3,286046982.7,N
1607506995.1,286046981.4,N
1607507015.8,286046985.0,N
1607507035.7,286046985.3,N
1607507055.5,286046988.9,N
1607507075.4,286046983.8,N
1607507095.2,286046992.1,N
1607507115.0,286046992.4,N
1607507115.9,286046992.4,N
1607507135.8,286046996.4,N
1607507155.6,286047003.0,N
1607507175.5,286047000.6,N
1607507195.3,286046996.0,N
1607507215.1,286046985.9,N
1607507235.9,286046987.4,N
1607507255.7,286046991.7,N
1607507275.6,286046996.2,N
1607507295.4,286046999.7,N
1607507315.2,286047002.7,N
1607507335.1,286047002.8,N
1607507336.0,286047002.8,N
1607507355.8,286046999.5,N
1607507375.7,286046995.0,N
1607507395.5,286046994.7,N
1607507415.3,286047000.2,N
1607507435.2,286047000.8,N
1607507455.0,286046996.8,N
1607507455.9,286046996.8,N
1607507475.8,286046998.0,N
1607507495.6,286046998.0,N
1607507515.4,286047000.4,N
1607507535.3,286046997.3,N
1607507555.1,286046993.0,N
1607507575.8,286046986.1,N
1607507595.7,286046990.3,N
1607507615.5,286046992.3,N
1607507635.4,286046994.3,N
1607507655.2,286046992.2,N
1607507675.0,286046989.0,N
1607507675.9,286046989.0,N
1607507695.8,286046988.6,N
1607507715.6,286046991.3,N
1607507735.4,286046986.2,N
1607507755.3,286046985.8,N
1607507775.1,286046980.7,Y
1607507795.9,286046989.9,P
1607507815.7,286046986.1,P
1607507835.5,286046986.2,P
1607507855.4,286046989.3,Y
1607507875.2,286046998.6,P
1607507895.1,286046993.4,N
1607507896.0,286046993.4,N
1607507915.8,286046995.0,N
1607507935.6,286046995.9,N
1607507955.5,286046997.0,N
1607508005.3,286046991.1,E
